Starlink 31152

operational
NORAD ID: 58734 Int'l Des: 2024-005 Owner: SPXS Country: US Constellation: starlink
LEOCIRCULAR

关于 Starlink 31152

正在加载描述...

实时位置

正在加载3D地球...

即将过境

高度历史

Altitude vs Time

uPlot chart will show altitude changes over time

两行轨道根数

1 58734U 24005G 25258.23126325 .00000158 00000-0 26788-4 0 9993
2 58734 43.0023 95.3955 0001277 262.1177 97.9520 15.02535261 94027
Epoch: Sep 15, 2025 • Age: 7 hours

当前状态

高度 569.7 km
速度 7.58 km/s
星下点 -38.52°S, 141.76°E
发射日期 Jan 7, 2024
运行时间 1.6 years
类型 internet

技术详情

分类 Payload
质量 730.00 kg
干质量 700.00 kg
总质量 730.00 kg
长度 0.30 m
直径 4.10 m
跨度 29.00 m
形状 Box + pan
制造商 SPXS
平台类型 Starlink V2M
阶段状态 In Orbit
所有者/国家 SPXS/US

大型星座

Loading constellations...